Regional Weather Roundup
Issued by NWS

Home | Current Version | Previous Version | Graphics & Text | Print | Product List | Glossary On
Versions: 1 2 3 4 5 6 7 8 9 10 11 12 13 14 15 16 17 18 19 20 21 22 23 24 25 26 27 28 29 30 31 32 33 34 35 36 37 38 39 40 41 42 43 44 45 46 47 48 49 50
000
ASUS43 KIND 252009
RWRIN

WEATHER ROUNDUP FOR INDIANA
NATIONAL WEATHER SERVICE INDIANAPOLIS IN
400 PM EDT THU AUG 25 2016

NOTE: "FAIR" INDICATES FEW OR NO CLOUDS BELOW 12,000 FEET WITH NO
SIGNIFICANT WEATHER AND/OR OBSTRUCTIONS TO VISIBILITY.

* - STATION DOES NOT REPORT WEATHER SUCH AS PRECIPITATION OR FOG.

+ - STATION NOT QUALITY CONTROLLED BY THE NATIONAL WEATHER SERVICE.
    USE DATA WITH CAUTION...ESPECIALLY DEWPOINT AND RELATIVE
    HUMIDITY OBSERVATIONS.

INZ001>003-010>013-019-020-252100-
NORTHWEST INDIANA

CITY           SKY/WX    TMP DP  RH WIND       PRES   REMARKS
GARY /AIRPORT/ MOSUNNY   81  72  74 NE6       30.04F
KNOX *+        PTSUNNY   79  50  36 W7        30.04F
LA PORTE +     PTSUNNY   81  75  83 NW7       30.05S
MICHIGAN CITY+ CLOUDY    79  70  73 MISG      30.05S
MONTICELLO +   CLOUDY    82  67  60 W7        30.05S
RENSSELAER +   MOSUNNY   81  72  74 W8        30.05F
VALPARAISO     PTSUNNY   80  71  74 W6        30.04F

$$

LMZ046-743>745-252100-
SOUTHERN LAKE MICHIGAN

STATION/POSITION TIME  TEMP    WIND        PRES    WAVE
                       AIR SEA DIR/SP/G            HT
                 (UTC) (F)     (DEG/KT/KT) (MB)    (FT)
BURNS HARBOR     1917   74     360/  3/  4 1017.9S
MICHIGAN CITY    1900   75     260/  5/  5   N/A
5NW MICH CITY    2000   74 74  340/  2/  4   N/A     1

$$

INZ004-005-014>016-021>024-252100-
NORTH CENTRAL INDIANA

CITY           SKY/WX    TMP DP  RH WIND       PRES   REMARKS
ELKHART        PTSUNNY   79  72  78 W14       30.04S
GOSHEN         CLOUDY    79  69  71 W14       30.03F
LOGANSPORT +   MOSUNNY   82  70  65 W12       30.06F
PERU/GRISSOM   MOSUNNY   85  71  62 W10       30.04F
ROCHESTER +    MOSUNNY   82  73  74 W8        30.05S
SOUTH BEND     PTSUNNY   78  71  79 NW12      30.05S
WARSAW +       PTSUNNY   81  79  94 W10       30.04S

$$

INZ006>009-017-018-025>027-252100-
NORTHEAST INDIANA

CITY           SKY/WX    TMP DP  RH WIND       PRES   REMARKS
ANGOLA *+      PTSUNNY   82  77  83 NW9       30.03R
AUBURN +       MOSUNNY   84  68  58 SW9G18    30.03F
FORT WAYNE     MOSUNNY   85  69  58 W15G21    30.04S
HUNTINGTON +   PTSUNNY  N/A N/A N/A W13G20    30.04S

$$

INZ028-029-035-036-043>045-051>053-252100-
WEST CENTRAL INDIANA

CITY           SKY/WX    TMP DP  RH WIND       PRES   REMARKS
CRAWFORDSVL +  MOSUNNY   83  71  64 W12       30.07S
GREENCASTLE +  MOSUNNY   88  75  66 SW3       30.08F HX  97
LAFAYETTE      PTSUNNY   82  71  69 W9        30.04F
TERRE HAUTE    PTSUNNY   89  72  56 SW10      30.07F HX  96

$$

INZ030>032-037>040-046>048-054>057-064-065-252100-
CENTRAL INDIANA

CITY           SKY/WX    TMP DP  RH WIND       PRES   REMARKS
ANDERSON       MOSUNNY   88  70  55 W12       30.06F
COLUMBUS       MOSUNNY   90  75  62 W7        30.06F HX 100
INDIANAPOLIS   MOSUNNY   89  70  53 W16       30.06F
-EAGLE CREEK   MOSUNNY   88  70  55 W8        30.05F
MARION +       PTSUNNY   84  68  58 W14       30.06F
MT COMFORT *+  MOSUNNY   86  73  66 W10       30.06F
SHELBYVILLE    MOSUNNY   88  71  57 W13       30.05F
ZIONSVILLE +   SUNNY     84  71  65 W9        30.07F

$$

INZ033-034-041-042-049-050-058-059-252100-
EAST CENTRAL INDIANA

CITY           SKY/WX    TMP DP  RH WIND       PRES   REMARKS
MUNCIE         SUNNY     87  71  58 W15       30.05F

$$

INZ060-061-067>069-081>083-085>088-252100-
SOUTHWEST INDIANA

CITY           SKY/WX    TMP DP  RH WIND       PRES   REMARKS
EVANSVILLE     SUNNY     92  70  48 SW13      30.07F HX  97
HUNTINGBURG *+ MOSUNNY   91  72  52 SW10      30.08S HX  98
WASHINGTON +   MOSUNNY   90  74  58 MISG      30.06S HX  98

$$

INZ062-063-066-070>080-084-089>092-252100-
SOUTH CENTRAL AND SOUTHEAST INDIANA

CITY           SKY/WX    TMP DP  RH WIND       PRES   REMARKS
BLOOMINGTON    MOSUNNY   87  74  64 W9        30.08F HX  95
MADISON *+     MOSUNNY   90  72  55 SW9       30.10S HX  96

$$




USA.gov is the U.S. government's official web portal to all federal, state and local government web resources and services.